Orbital Elements at Epoch 2459000.5 (2020-May-31.0) TDB
Reference: JPL 32 (heliocentric ecliptic J2000)
Element | Value | Uncertainty (1-sigma) | Units |
e | .1442793177731456 | 3.1694e-08 | |
a | 2.873598217150742 | 1.1881e-08 | au |
q | 2.458997426826106 | 9.398e-08 | au |
i | 4.278147376728119 | 3.2643e-06 | deg |
node | 113.0392791825624 | 4.1178e-05 | deg |
peri | 194.7189802333208 | 4.2721e-05 | deg |
M | 355.9987890057999 | 1.0114e-05 | deg |
tp | 2459020.275453324142 (2020-Jun-19.77545332) | 4.9966e-05 | TDB |
period | 1779.25213316932 4.87 | 1.1034e-05 3.021e-08 | d yr |
n | .2023322008661833 | 1.2548e-09 | deg/d |
Q | 3.288199007475379 | 1.3595e-08 | au |
|
| | Orbit Determination Parameters
Additional Information
|